Location: Unspecified
(48.2082°N, 0.0000°E)
Time: 15:35:23
(UTC+00:00)

Altair - Pass Details

Date: 18 June 2019
Orbit: 1501 x 1683 km, 47.2° (Epoch: 21 August)

Event Time Altitude Azimuth Distance (km) Brightness Sun altitude
Rises 20:06:13 0° 214° (SW) 4,703 10.0 -1.2°
Reaches altitude 10° 20:09:25 10° 208° (SSW) 3,745 9.4 -1.6°
Maximum altitude 20:18:08 42° 141° (SE) 2,156 7.9 -2.7°
Drops below altitude 10° 20:27:10 10° 76° (ENE) 3,890 9.3 -3.9°
Sets 20:30:33 0° 70° (ENE) 4,899 9.9 -4.3°
